GFSFLT2_sfc_rhum_051.txt.gz
RH
94 90 91 94 94 94 92 92 91 89 86 85 84 83 83 82 82 81 80 80 79 77 76 72 68 70 71 78 74 70 57 59
92 92 91 93 92 92 91 91 89 86 84 84 84 82 82 82 81 81 80 78 76 76 76 76 72 70 72 79 74 65 51 63
93 94 90 95 92 87 89 88 86 84 81 84 84 79 78 79 79 80 78 76 74 75 74 75 74 70 77 81 69 58 54 61
92 84 90 82 74 86 90 80 81 79 78 80 77 78 78 72 81 80 78 78 75 75 77 71 68 62 60 66 59 56 57 59
73 79 80 72 77 81 82 83 84 80 77 79 80 78 80 87 89 91 83 78 77 67 68 66 63 65 66 63 61 62 67 58
64 70 71 65 72 71 70 71 79 86 88 87 92 93 95 95 96 85 77 73 72 72 72 63 62 56 58 62 61 60 62 61
64 66 63 65 78 85 85 93 93 96 96 92 94 96 94 93 90 82 80 70 67 66 63 62 62 57 53 50 49 54 45 50
68 67 76 80 79 77 84 91 96 96 95 93 91 94 94 94 91 78 69 67 68 66 64 61 57 54 48 47 46 43 39 40
65 77 78 75 78 78 84 86 91 91 88 88 84 87 89 89 88 78 72 67 69 64 60 59 58 51 50 48 50 47 43 43
62 68 74 78 84 89 89 93 95 96 93 85 79 79 76 75 75 75 76 70 66 66 66 62 62 62 59 53 59 52 51 45
80 76 81 93 95 96 96 95 96 94 87 79 72 71 71 77 76 68 67 68 69 61 65 67 68 66 50 52 60 57 57 42
77 83 94 96 98 98 98 97 93 82 79 74 68 69 70 76 72 61 65 65 66 68 68 67 68 69 50 52 58 57 59 61
88 91 95 95 99 99 98 95 84 77 71 67 67 66 62 68 70 66 65 64 68 68 70 67 72 74 70 61 64 63 56 60
92 86 91 90 94 92 83 78 74 70 70 72 68 64 63 56 63 65 63 65 67 70 70 79 75 72 73 81 78 65 68 54
86 86 87 84 85 78 79 75 76 75 72 74 68 59 55 60 62 65 64 67 69 73 73 71 80 78 74 74 83 85 78 69
84 81 83 79 78 73 73 69 64 71 74 73 66 60 55 54 55 61 63 69 67 73 66 76 76 76 78 62 76 83 91 84
90 81 78 78 58 64 65 69 70 73 73 64 67 60 56 51 54 62 68 70 74 71 70 72 77 78 82 83 85 86 87 93
91 85 78 59 61 64 64 66 68 63 68 68 72 70 69 63 60 66 69 68 63 65 67 69 73 79 83 87 88 91 88 89
87 67 59 59 62 67 69 64 63 62 67 66 58 58 63 63 64 64 62 59 60 62 65 69 71 79 84 88 90 89 85 80
52 59 61 62 65 69 66 59 62 60 57 58 60 64 64 57 55 56 57 58 62 64 70 72 73 87 82 85 86 83 85 81

GFSFLT2_sfc_rhum_057.txt.gz
RH
97 93 86 81 92 94 93 90 89 87 86 85 84 84 82 82 82 80 79 78 78 77 76 78 79 78 78 74 78 74 72 74
98 95 92 98 95 94 93 90 90 88 88 87 86 86 85 84 83 81 79 78 77 76 77 78 81 79 79 77 74 71 70 73
95 95 96 97 95 91 90 88 87 85 85 85 88 89 86 80 81 79 79 78 78 79 78 77 74 74 75 76 71 69 69 73
92 95 95 94 79 94 92 82 86 86 86 84 85 86 85 78 82 80 80 79 78 74 72 69 62 58 57 59 62 63 63 72
96 95 96 92 88 96 94 90 88 85 81 82 82 83 90 92 95 95 87 75 65 61 58 57 52 53 52 55 51 53 61 64
91 94 94 94 91 93 92 84 85 85 82 83 93 96 97 97 96 89 75 72 68 64 65 57 54 50 51 54 50 51 54 55
88 96 96 91 91 92 92 93 94 97 97 94 97 97 98 94 86 80 77 68 63 61 51 55 55 52 54 54 52 54 52 55
89 91 86 91 92 91 95 97 98 98 98 97 95 93 92 90 90 78 72 66 63 59 58 60 62 57 55 57 55 56 53 56
85 85 83 89 90 94 98 98 97 98 97 95 88 88 89 88 89 82 72 66 65 64 65 65 65 56 57 56 56 56 57 56
77 75 87 91 95 98 99 98 98 96 93 93 88 85 82 84 81 80 74 70 70 70 68 69 71 68 65 63 58 60 57 56
84 88 90 95 97 98 98 96 97 95 89 90 84 78 78 76 77 77 72 72 74 69 75 70 72 70 61 62 64 68 63 50
88 91 96 97 98 98 98 98 96 88 86 83 79 80 74 73 75 75 72 75 75 70 68 77 76 74 57 59 75 72 69 67
92 95 97 94 96 97 98 97 93 86 81 76 78 79 74 72 74 71 72 70 70 68 75 74 77 84 77 78 79 73 72 69
93 90 95 88 88 98 96 93 89 83 81 80 79 80 74 69 71 69 72 76 73 74 75 82 82 84 78 88 77 75 75 69
88 88 89 84 92 93 92 84 84 83 85 86 81 73 70 69 68 72 72 74 75 78 77 72 76 80 80 72 78 84 90 80
84 87 89 88 94 92 89 84 82 84 84 86 79 73 70 67 69 73 75 79 79 79 75 77 76 70 80 74 83 83 92 95
92 94 92 91 94 93 90 84 81 84 86 83 80 75 72 69 72 75 78 82 74 68 70 71 77 73 82 87 90 94 93 96
96 94 91 91 95 95 89 85 80 84 88 87 85 82 77 73 71 74 66 66 65 68 69 66 74 80 86 92 92 92 93 96
96 93 91 95 94 95 88 82 77 78 83 82 84 80 75 70 64 70 76 64 65 62 64 68 74 81 86 90 94 94 94 96
96 94 92 96 94 91 87 81 81 87 86 81 73 69 65 68 84 71 63 60 59 64 72 76 84 89 83 87 90 90 93 94

GFSFLT2_sfc_rhum_063.txt.gz
RH
97 95 93 90 92 92 89 87 86 86 87 89 88 86 84 81 79 78 79 78 77 76 79 79 80 80 80 81 80 74 46 46
98 97 93 96 89 92 92 89 89 90 90 88 86 85 84 84 82 80 80 82 81 79 82 81 77 78 77 77 76 69 43 45
96 90 96 92 80 89 90 89 89 88 85 88 85 69 63 57 78 84 80 80 76 70 68 72 74 71 63 59 57 43 44 43
95 93 90 90 89 94 86 73 70 73 71 76 70 71 69 61 72 83 79 75 72 65 61 59 47 32 32 44 31 36 40 45
94 91 94 90 87 83 76 69 70 69 74 74 74 74 74 72 69 63 55 56 40 44 40 35 42 36 37 38 36 34 31 30
87 85 75 92 82 76 76 68 72 73 72 74 74 74 81 79 72 56 54 46 48 44 43 48 44 43 43 43 41 33 31 29
83 77 92 85 84 76 75 74 70 82 80 76 81 78 82 74 68 57 51 44 43 43 40 40 42 41 39 38 38 41 43 35
75 74 81 83 77 77 72 76 70 75 75 71 80 75 80 75 64 52 48 42 40 39 40 40 38 39 42 42 42 37 44 52
68 76 81 80 76 73 71 68 68 66 71 85 84 85 80 78 74 56 45 47 52 58 46 43 38 36 43 41 38 40 38 43
67 70 84 84 77 72 70 73 73 76 87 89 84 83 78 72 53 53 50 48 48 45 42 41 42 38 40 39 37 37 40 39
70 76 81 84 80 83 84 84 86 87 90 88 83 80 73 63 55 56 55 49 49 44 47 46 43 39 34 41 43 38 40 32
73 78 82 85 87 85 85 85 85 85 88 83 76 67 66 57 54 56 50 49 50 47 51 50 46 46 33 39 47 43 42 42
76 81 83 79 84 91 90 93 86 85 82 74 69 60 61 66 51 54 52 49 51 56 54 55 49 51 44 43 48 50 52 45
75 75 79 75 70 74 75 76 74 75 74 76 68 64 62 64 57 54 54 52 58 58 56 52 51 53 42 43 37 42 45 45
73 73 75 72 72 72 72 70 71 78 80 69 65 63 61 56 58 56 58 54 54 57 56 55 50 52 54 39 36 30 39 42
72 74 75 76 77 74 75 72 72 74 73 67 69 68 59 54 54 59 60 56 58 57 53 53 50 43 50 47 53 43 34 36
76 74 75 77 78 78 78 78 79 81 71 74 71 72 59 54 57 61 61 56 62 60 61 64 65 65 44 48 51 48 55 51
80 77 76 78 80 80 79 80 81 85 77 71 66 62 60 59 56 60 62 61 57 68 58 69 67 64 54 52 49 45 41 51
78 76 76 80 86 84 81 80 83 81 74 73 69 64 62 64 62 63 60 60 66 69 58 58 73 62 59 54 57 58 58 60
79 77 75 80 90 90 89 83 84 79 77 71 68 65 65 66 63 62 66 67 75 76 61 71 63 62 65 66 55 54 54 53

GFSFLT2_sfc_rhum_069.txt.gz
RH
96 94 88 91 87 88 88 88 87 85 86 87 87 86 84 83 84 83 81 80 80 80 81 81 77 75 74 72 67 65 31 28
97 97 97 95 86 92 93 94 92 90 89 88 87 85 84 84 82 81 82 82 81 78 81 81 76 74 72 67 63 67 26 25
94 96 95 89 92 81 91 90 88 88 84 83 72 45 46 47 80 83 83 82 81 78 78 77 74 66 59 56 62 25 24 26
93 90 91 85 84 84 80 73 65 61 58 57 47 52 43 48 73 83 82 80 76 76 74 74 61 30 30 46 24 25 22 25
93 92 92 88 91 88 85 83 60 62 60 51 53 52 57 53 59 52 56 60 40 41 42 35 39 34 32 30 24 22 20 18
95 93 93 91 88 87 88 80 63 58 57 60 62 55 53 54 48 51 47 39 42 40 40 46 41 36 33 31 28 22 20 18
92 91 91 87 87 86 83 67 57 60 57 62 57 55 59 48 48 46 42 39 42 43 43 37 37 33 28 26 26 28 26 22
90 92 93 89 88 68 59 58 50 55 57 54 60 53 59 48 50 44 42 42 40 40 39 36 32 31 30 27 26 24 28 30
91 89 87 78 74 67 57 52 46 43 42 55 54 50 55 53 51 47 43 42 46 41 40 34 30 24 27 26 26 28 29 29
82 67 70 75 71 59 51 41 44 41 40 46 51 57 59 58 53 54 51 45 43 40 38 34 30 27 29 26 26 26 29 28
61 59 63 73 66 50 47 52 41 36 43 54 68 70 66 63 58 52 50 45 43 41 39 36 32 28 27 30 32 28 31 20
48 56 65 69 71 56 46 46 42 42 48 53 63 68 70 67 52 52 51 45 45 42 42 34 33 33 22 27 36 32 31 31
46 53 58 61 54 49 42 41 38 40 50 61 68 64 66 65 50 52 51 46 48 47 43 45 40 40 39 38 36 39 40 35
41 40 46 49 43 40 36 37 36 38 58 71 70 64 62 61 54 52 52 46 50 50 46 43 41 42 43 41 44 40 38 38
41 40 39 43 41 38 38 39 39 42 56 71 68 64 59 59 54 51 52 48 49 51 48 47 44 45 44 46 49 51 39 32
42 41 38 40 48 42 46 40 41 41 51 61 63 62 62 58 53 53 56 52 52 51 44 48 48 48 45 41 47 41 44 43
44 41 40 40 52 46 45 47 42 42 51 66 71 65 62 62 56 56 59 56 54 55 51 52 48 52 50 49 48 45 46 45
44 43 41 42 47 53 51 53 49 42 61 66 67 64 65 75 66 61 61 58 55 52 52 54 60 55 51 56 48 47 40 37
45 43 41 43 48 52 56 55 54 57 62 63 73 71 73 73 71 67 64 62 55 51 58 61 69 64 57 65 48 42 37 37
45 43 44 41 49 55 56 57 53 64 65 66 71 71 71 66 71 78 75 68 57 61 60 74 71 71 63 66 54 39 36 35

GFSFLT2_sfc_rhum_072.txt.gz
RH
97 95 97 94 91 92 90 88 87 87 86 87 87 88 88 88 87 85 85 85 83 82 82 82 78 74 69 68 72 72 60 45
91 97 98 97 93 94 93 93 93 91 90 89 87 87 88 86 84 83 83 82 81 80 82 81 76 70 65 63 66 70 43 50
95 98 94 95 92 89 91 91 90 88 84 82 77 70 74 70 84 84 84 84 82 80 80 78 71 65 62 58 60 41 42 55
97 95 94 88 89 95 92 83 74 72 69 68 58 68 69 72 85 85 84 84 83 81 78 74 66 48 49 57 40 38 46 61
96 94 93 93 90 89 90 93 78 73 74 63 71 69 73 75 77 74 76 73 60 65 67 59 56 55 50 49 43 39 43 45
96 94 95 94 91 93 94 87 74 74 73 72 80 76 71 73 70 72 70 64 63 61 68 63 54 48 45 43 41 43 42 56
93 95 96 96 95 95 95 92 79 77 77 75 76 75 76 73 72 67 63 63 65 68 65 57 54 47 43 39 39 39 38 57
95 94 95 91 92 86 88 81 81 83 83 78 73 76 81 75 74 70 67 64 64 66 64 58 57 49 43 38 39 42 41 53
91 90 91 88 84 85 84 73 64 70 73 69 69 72 74 74 77 74 67 66 69 66 62 60 53 44 43 40 42 38 42 38
91 76 81 82 77 76 70 57 59 59 67 70 73 73 73 75 76 74 70 71 68 67 64 60 58 52 48 45 43 41 39 37
88 83 79 80 78 66 64 67 64 61 64 65 74 74 74 77 78 75 72 72 71 66 67 64 58 53 48 52 50 49 43 32
79 74 75 76 77 83 76 60 54 55 66 69 79 80 81 82 75 75 72 72 72 68 67 61 58 57 31 42 57 53 52 52
71 68 73 79 81 78 64 67 61 65 64 68 78 79 78 87 79 77 74 72 71 73 68 63 62 61 65 64 66 61 60 57
64 64 69 73 71 62 56 55 54 52 58 74 80 81 78 79 81 74 75 74 76 72 67 70 70 71 71 68 72 66 61 60
52 57 64 66 62 52 53 53 59 54 75 80 81 79 75 77 79 75 74 75 78 78 74 71 73 74 66 72 74 76 66 61
50 47 52 56 56 50 55 51 52 55 74 73 78 79 74 69 74 77 78 77 75 75 65 73 74 76 74 59 61 60 64 74
54 49 47 48 52 60 58 60 56 56 59 76 80 80 78 68 76 78 80 78 76 72 68 68 77 72 75 72 63 70 67 77
55 52 48 53 57 60 68 65 64 63 80 82 79 81 85 83 77 88 86 80 77 79 75 74 71 76 74 66 66 71 68 72
55 54 51 50 62 64 66 69 64 68 76 78 83 87 86 86 86 85 83 83 82 83 83 81 78 73 72 72 69 71 65 60
53 51 52 50 56 63 65 65 65 68 71 74 77 83 84 85 85 84 82 84 87 90 91 85 84 85 81 81 84 80 66 61

GFSFLT2_sfc_rhum_078.txt.gz
RH
96 98 94 96 93 90 92 90 88 88 88 87 90 88 84 84 85 85 84 81 78 76 75 75 73 70 76 79 77 73 66 63
98 97 98 97 98 93 92 92 93 93 93 93 94 89 88 88 88 85 82 80 78 75 74 72 70 68 78 80 78 76 76 74
97 96 96 96 98 96 92 94 95 95 94 94 91 88 88 84 86 84 82 82 78 76 75 73 66 69 72 76 73 72 78 80
97 95 95 94 96 96 96 90 86 87 87 87 87 89 86 84 86 84 82 81 80 78 76 68 62 54 55 68 74 79 84 86
96 94 93 93 95 95 99 96 83 83 80 82 86 88 87 84 84 87 85 83 84 77 64 65 56 53 52 62 71 78 85 87
96 94 93 93 90 92 94 90 90 81 84 83 88 86 88 85 79 80 74 79 79 74 74 59 53 49 48 56 62 72 79 80
97 95 94 91 87 84 82 81 75 78 79 84 79 79 81 83 75 75 73 74 75 80 66 59 53 51 48 48 55 65 64 73
96 94 92 88 84 79 72 77 83 81 83 85 81 79 79 73 75 76 74 71 77 73 66 61 57 50 47 47 58 68 66 73
93 92 87 84 80 85 86 75 73 79 78 80 75 80 89 83 84 83 79 75 82 74 68 68 59 50 45 46 53 68 68 70
94 90 92 89 81 76 68 69 72 72 74 79 79 83 86 87 82 84 84 82 82 76 76 72 64 56 50 52 50 53 62 69
94 91 88 86 83 77 71 66 64 67 77 77 83 87 86 88 86 87 85 85 83 75 75 70 67 59 53 55 58 56 49 54
84 84 83 83 88 85 72 74 67 67 80 82 83 87 86 92 91 88 86 84 83 78 72 76 67 63 41 51 62 60 57 58
84 82 82 85 86 75 62 57 84 82 76 79 85 86 89 92 93 86 86 76 77 78 78 75 74 70 68 71 72 70 68 65
87 81 86 80 75 66 63 77 92 82 78 80 86 90 92 92 89 86 88 86 83 82 79 79 72 76 71 79 78 74 72 68
87 80 78 78 75 72 90 90 88 86 84 80 87 88 89 90 92 89 92 88 84 84 79 73 71 78 75 72 82 84 82 76
85 78 73 73 75 72 75 73 68 68 67 70 86 87 88 91 91 93 94 90 89 83 79 75 71 74 74 68 74 73 74 75
83 76 72 68 73 67 74 79 75 75 79 82 92 93 90 90 92 94 94 92 90 93 86 80 85 88 84 87 84 74 74 74
77 74 69 67 68 73 82 83 76 75 79 85 86 90 91 92 92 94 94 92 95 93 91 86 89 92 90 90 92 94 93 91
71 70 69 67 70 76 82 84 80 69 75 75 78 89 91 91 92 94 92 92 93 92 90 92 95 96 95 97 96 95 94 94
65 65 66 64 68 79 84 77 76 71 65 77 81 84 87 89 91 89 96 96 95 95 96 97 96 97 97 98 96 96 95 94

GFSFLT2_sfc_rhum_081.txt.gz
RH
96 97 97 96 94 88 90 90 88 90 89 86 83 84 84 83 83 82 78 75 73 72 71 79 80 79 78 78 77 72 73 68
96 98 99 99 98 95 93 90 92 90 91 89 88 88 87 86 84 80 78 74 71 69 73 79 80 82 79 80 79 75 80 78
98 99 99 98 96 92 94 90 94 94 95 93 91 89 89 84 82 81 79 77 76 71 70 82 83 82 81 80 75 81 84 82
98 98 98 97 97 93 95 91 90 89 90 86 89 92 87 83 84 82 80 79 77 75 71 68 66 72 78 78 83 86 87 87
97 97 96 96 97 96 98 98 97 92 89 87 91 89 87 83 82 85 84 77 70 65 65 53 52 66 77 87 89 91 96 93
96 95 95 96 96 96 95 98 96 95 94 92 92 93 98 92 89 91 78 80 71 72 69 59 55 63 74 81 83 90 95 96
98 94 93 90 89 87 93 96 93 96 95 93 94 84 85 85 86 84 74 77 71 69 61 57 56 54 62 69 74 78 81 88
98 94 91 88 83 84 86 86 84 91 93 90 85 79 80 76 84 82 77 73 74 69 63 59 56 54 54 57 63 65 69 75
97 96 92 90 82 77 82 76 78 84 84 84 80 82 84 82 86 84 79 81 80 73 68 66 58 50 52 60 69 69 69 71
94 90 96 95 87 82 79 73 77 81 79 78 77 80 81 79 82 84 84 83 80 77 76 72 64 56 55 56 64 73 66 70
98 95 95 91 87 78 78 80 79 77 81 74 82 85 86 76 84 87 86 83 84 76 81 73 67 61 53 59 62 65 68 64
93 94 94 94 95 86 76 74 71 76 81 74 86 86 89 91 90 91 91 89 90 84 78 77 70 65 44 50 63 65 61 72
91 92 89 88 93 92 82 76 72 73 75 78 86 90 89 93 95 92 90 85 82 83 81 76 75 72 68 72 73 69 68 66
83 82 81 82 80 69 68 66 78 72 73 77 87 86 92 93 94 89 89 86 88 86 79 82 80 77 71 78 72 72 81 71
85 79 80 73 70 70 76 75 79 78 81 88 91 90 92 92 93 92 90 89 85 85 84 77 80 83 76 70 84 78 78 75
92 83 77 75 74 78 81 61 56 61 71 79 87 93 94 93 93 94 91 90 93 88 89 89 84 76 77 72 76 78 73 70
94 86 80 77 81 78 82 75 72 76 84 84 86 90 93 95 94 95 95 95 92 92 93 90 89 88 88 92 85 78 79 78
96 89 82 76 79 80 80 82 75 82 90 88 78 86 92 94 94 94 93 94 95 94 94 92 90 90 91 88 89 91 96 97
92 86 81 75 75 78 76 80 82 79 79 81 80 85 91 93 96 96 94 93 94 95 96 94 93 91 93 94 93 94 97 96
84 80 77 74 74 76 78 76 78 80 76 78 80 80 84 90 93 91 92 94 96 97 97 97 97 97 94 94 95 97 94 93